Simultaneous Nadir Overpasses (SNOs) Predictions

Prediction of SNOs between NPP and TERRA Satellite Orbit:

Table of predicted SNOs for the next 14.0 days since TLE Epoch: 8/24/2013
Index Date (NPP) Time (NPP) Lat,Lon (NPP) SZA (NPP ) Date (TERRA) Time (TERRA) Lat,Lon (TERRA) SZA (TERRA ) Distance(km) Time Diff (sec)
1 08/25/2013 02:56:32 -68.38, -45.56 122.46 08/25/2013 02:57:04 -68.39, -45.54 122.45 1.27 32
2 08/25/2013 03:47:16 68.23, 121.93 57.41 08/25/2013 03:46:32 68.22, 121.91 57.40 1.63 44
3 08/27/2013 18:22:51 68.59, -97.39 58.68 08/27/2013 18:24:03 68.52, -97.13 58.60 13.31 72
4 08/27/2013 19:13:29 -68.31, 70.29 121.60 08/27/2013 19:13:35 -68.30, 70.24 121.61 2.57 6
5 08/27/2013 20:04:14 68.21,-122.28 58.32 08/27/2013 20:03:02 68.19,-122.25 58.30 3.34 72
6 08/30/2013 10:39:46 68.42, 18.60 59.45 08/30/2013 10:40:34 68.41, 18.61 59.44 1.05 48
7 08/30/2013 11:30:27 -68.29,-173.92 120.66 08/30/2013 11:30:04 -68.31,-173.88 120.65 2.20 23
8 08/30/2013 12:20:54 67.23, -5.31 58.28 08/30/2013 12:19:47 67.29, -7.40 58.36 90.23 67
9 09/02/2013 02:06:15 -69.35, -34.21 118.64 09/02/2013 02:07:22 -69.29, -32.05 118.73 85.36 67
10 09/02/2013 02:56:43 68.36, 134.44 60.36 09/02/2013 02:57:04 68.34, 134.40 60.34 2.74 21
11 09/02/2013 03:47:24 -68.23, -58.07 119.76 09/02/2013 03:46:34 -68.24, -58.08 119.75 0.71 50
12 09/04/2013 18:22:55 -68.44, 82.80 118.59 09/04/2013 18:24:05 -68.42, 82.74 118.61 2.85 70
13 09/04/2013 19:13:39 68.30,-109.72
